Weather History for LXGB - February, 2013

Change the Weather History Date:

Thursday, February 14, 2013

  Actual Average Record
Temperature  
Mean Temperature 56 °F -  
Max Temperature 62 °F 61 °F 75 °F (2002)
Min Temperature 50 °F 52 °F 42 °F (2012)
Degree Days  
Heating Degree Days 9    
Growing Degree Days 6 (Base 50)    
Moisture  
Dew Point 47 °F    
Average Humidity 72    
Maximum Humidity 88    
Minimum Humidity 49    
Precipitation  
Precipitation 0.00 in - - ()
Sea Level Pressure  
Sea Level Pressure 30.18 in    
Wind  
Wind Speed 7 mph ()    
Max Wind Speed 12 mph    
Max Gust Speed -    
Visibility 8.8 miles    
Events      
Averages and records for this station are not official NWS values.
T = Trace of Precipitation, MM = Missing Value Source: Averaged Metar Reports

Daily Weather History Graph

Daily Weather History Graph

Search for Another Location

Airport or City:

Trip Planner

Search our weather history database for the weather conditions in past years. The results will help you decide how hot, cold, wet, or windy it might be!

Date:

Astronomy

Feb. 14, 2013 Rise Set
Actual Time 8:09 AM CET 7:01 PM CET
Civil Twilight 7:43 AM CET 7:28 PM CET
Nautical Twilight 7:13 AM CET 7:58 PM CET
Astronomical Twilight 6:43 AM CET 8:28 PM CET
Moon 10:13 AM CET (2/14) 11:39 PM CET (2/14)
Length of Visible Light 11h 44m
Length of Day
10h 51m
Waxing Crescent, 19% of the Moon is Illuminated
Feb 14
Waxing Crescent
Feb 17
First Quarter
Feb 25
Full
Mar 4
Last Quarter
Mar 11
New

Hourly Weather History & Observations

Time (CET) Temp. Dew Point Humidity Pressure Visibility Wind Dir Wind Speed Gust Speed Precip Events Conditions
12:50 AM 56 °F 47 °F 63% 30.23 in 11 mi SW 11.5 mph - -  
12:50 AM 57.2 °F 46.4 °F 67% 30.21 in 6.2 mi SW 11.5 mph - N/A   Unknown
1:50 AM 55.4 °F 48.2 °F 77% 30.21 in 6.2 mi WSW 11.5 mph - N/A   Unknown
2:50 AM 55.4 °F 46.4 °F 72% 30.21 in 6.2 mi WSW 9.2 mph - N/A   Unknown
3:50 AM 53.6 °F 48.2 °F 82% 30.18 in 6.2 mi West 10.4 mph - N/A   Unknown
4:50 AM 51.8 °F 46.4 °F 82% 30.18 in 6.2 mi WSW 10.4 mph - N/A   Unknown
5:50 AM 51.8 °F 46.4 °F 82% 30.18 in 6.2 mi WSW 9.2 mph - N/A   Unknown
6:50 AM 51 °F 47 °F 83% 30.19 in 12 mi West 6.9 mph - -   Scattered Clouds
6:50 AM 51.8 °F 48.2 °F 88% 30.18 in 6.2 mi West 6.9 mph - N/A   Partly Cloudy
7:50 AM 50.0 °F 46.4 °F 87% 30.18 in - WSW 6.9 mph - N/A   Clear
8:50 AM 51.8 °F 46.4 °F 82% 30.18 in - WSW 6.9 mph - N/A   Clear
9:50 AM 51.8 °F 46.4 °F 82% 30.21 in - West 5.8 mph - N/A   Clear
10:50 AM 55.4 °F 46.4 °F 72% 30.21 in - West 2.3 mph - N/A   Clear
11:50 AM 60.8 °F 46.4 °F 59% 30.21 in - ESE 2.3 mph - N/A   Clear
12:50 PM 60 °F 46 °F 49% 30.22 in 19 mi East 5.8 mph - -  
12:50 PM 60.8 °F 46.4 °F 59% 30.21 in - East 5.8 mph - N/A   Clear
1:50 PM 60.8 °F 42.8 °F 52% 30.18 in - East 5.8 mph - N/A   Clear
2:50 PM 62.6 °F 46.4 °F 55% 30.15 in 6.2 mi East 8.1 mph - N/A   Unknown
3:50 PM 62.6 °F 46.4 °F 55% 30.15 in - East 6.9 mph - N/A   Clear
4:50 PM 62.6 °F 44.6 °F 52% 30.15 in - East 6.9 mph - N/A   Clear
5:50 PM 60.8 °F 51.8 °F 72% 30.12 in - ENE 5.8 mph - N/A   Clear
6:50 PM 59 °F 50 °F 64% 30.16 in 19 mi ENE 3.5 mph - -   Clear
6:50 PM 59.0 °F 50.0 °F 72% 30.15 in - ENE 3.5 mph - N/A   Clear
7:50 PM 59.0 °F 51.8 °F 77% 30.15 in - NE 2.3 mph - N/A   Clear
8:50 PM 57.2 °F 51.8 °F 82% 30.15 in - East 2.3 mph - N/A   Clear
9:50 PM 55.4 °F 46.4 °F 72% 30.15 in - Calm Calm - N/A   Clear
10:50 PM 53.6 °F 48.2 °F 82% 30.15 in 6.2 mi West 3.5 mph - N/A   Unknown
11:50 PM 53.6 °F 48.2 °F 82% 30.15 in 6.2 mi West 3.5 mph - N/A   Unknown